Time,TemperatureF,DewpointF,PressureIn,WindDirection,WindDirectionDegrees,WindSpeedMPH,WindSpeedGustMPH,Humidity,HourlyPrecipIn,Conditions,Clouds,dailyrainin,SolarRadiationWatts/m^2,SoftwareType,DateUTC
2013-05-08 00:01:00,40.0,29.0,-100.00,North,359,5.0,24.0,64,0.00,,,0.00,0.000000,,2013-05-08 06:01:00,
2013-05-08 00:12:00,40.0,29.0,-100.00,North,359,5.0,24.0,64,0.00,,,0.00,0.000000,,2013-05-08 06:12:00,
2013-05-08 00:21:00,40.0,29.0,-100.00,North,359,5.0,24.0,64,0.00,,,0.00,0.000000,,2013-05-08 06:21:00,
2013-05-08 00:32:00,40.0,29.0,-100.00,North,359,5.0,24.0,64,0.00,,,0.00,0.000000,,2013-05-08 06:32:00,
2013-05-08 00:40:00,38.0,27.0,-100.00,North,353,1.0,21.0,65,0.00,,,0.00,0.000000,,2013-05-08 06:40:00,
2013-05-08 01:01:00,38.0,27.0,-100.00,North,353,1.0,21.0,65,0.00,,,0.00,0.000000,,2013-05-08 07:01:00,
2013-05-08 01:11:00,38.0,27.0,-100.00,North,353,1.0,21.0,65,0.00,,,0.00,0.000000,,2013-05-08 07:11:00,
2013-05-08 01:21:00,38.0,27.0,-100.00,North,353,1.0,21.0,65,0.00,,,0.00,0.000000,,2013-05-08 07:21:00,
2013-05-08 01:31:00,38.0,27.0,-100.00,North,353,1.0,21.0,65,0.00,,,0.00,0.000000,,2013-05-08 07:31:00,
2013-05-08 01:40:00,40.0,28.0,-100.00,NE,34,3.0,10.0,62,0.00,,,0.00,0.000000,,2013-05-08 07:40:00,
2013-05-08 02:01:00,40.0,28.0,-100.00,NE,34,3.0,10.0,62,0.00,,,0.00,0.000000,,2013-05-08 08:01:00,
2013-05-08 02:11:00,40.0,28.0,-100.00,NE,34,3.0,10.0,62,0.00,,,0.00,0.000000,,2013-05-08 08:11:00,
2013-05-08 02:21:00,40.0,28.0,-100.00,NE,34,3.0,10.0,62,0.00,,,0.00,0.000000,,2013-05-08 08:21:00,
2013-05-08 02:31:00,40.0,28.0,-100.00,NE,34,3.0,10.0,62,0.00,,,0.00,0.000000,,2013-05-08 08:31:00,
2013-05-08 02:40:00,41.0,28.0,-100.00,WSW,252,5.0,12.0,60,0.00,,,0.00,0.000000,,2013-05-08 08:40:00,
2013-05-08 03:02:00,41.0,28.0,-100.00,WSW,252,5.0,12.0,60,0.00,,,0.00,0.000000,,2013-05-08 09:02:00,
2013-05-08 03:11:00,41.0,28.0,-100.00,WSW,252,5.0,12.0,60,0.00,,,0.00,0.000000,,2013-05-08 09:11:00,
2013-05-08 03:21:00,41.0,28.0,-100.00,WSW,252,5.0,12.0,60,0.00,,,0.00,0.000000,,2013-05-08 09:21:00,
2013-05-08 03:32:00,41.0,28.0,-100.00,WSW,252,5.0,12.0,60,0.00,,,0.00,0.000000,,2013-05-08 09:32:00,
2013-05-08 03:40:00,40.0,30.0,-100.00,NNW,340,3.0,12.0,66,0.00,,,0.00,0.000000,,2013-05-08 09:40:00,
2013-05-08 04:02:00,40.0,30.0,-100.00,NNW,340,3.0,12.0,66,0.00,,,0.00,0.000000,,2013-05-08 10:02:00,
2013-05-08 04:12:00,40.0,30.0,-100.00,NNW,340,3.0,12.0,66,0.00,,,0.00,0.000000,,2013-05-08 10:12:00,
2013-05-08 04:22:00,40.0,30.0,-100.00,NNW,340,3.0,12.0,66,0.00,,,0.00,0.000000,,2013-05-08 10:22:00,
2013-05-08 04:33:00,40.0,30.0,-100.00,NNW,340,3.0,12.0,66,0.00,,,0.00,0.000000,,2013-05-08 10:33:00,
2013-05-08 04:40:00,37.0,31.0,-100.00,NW,311,3.0,11.0,79,0.00,,,0.00,0.000000,,2013-05-08 10:40:00,
2013-05-08 05:02:00,37.0,31.0,-100.00,NW,311,3.0,11.0,79,0.00,,,0.00,0.000000,,2013-05-08 11:02:00,
2013-05-08 05:11:00,37.0,31.0,-100.00,NW,311,3.0,11.0,79,0.00,,,0.00,0.000000,,2013-05-08 11:11:00,
2013-05-08 05:22:00,37.0,31.0,-100.00,NW,311,3.0,11.0,79,0.00,,,0.00,0.000000,,2013-05-08 11:22:00,
2013-05-08 05:32:00,37.0,31.0,-100.00,NW,311,3.0,11.0,79,0.00,,,0.00,0.000000,,2013-05-08 11:32:00,
2013-05-08 05:40:00,38.0,28.0,-100.00,North,9,5.0,12.0,68,0.00,,,0.00,0.000000,,2013-05-08 11:40:00,
2013-05-08 06:01:00,38.0,28.0,-100.00,North,9,5.0,12.0,68,0.00,,,0.00,0.000000,,2013-05-08 12:01:00,
2013-05-08 06:11:00,38.0,28.0,-100.00,North,9,5.0,12.0,68,0.00,,,0.00,0.000000,,2013-05-08 12:11:00,
2013-05-08 06:21:00,38.0,28.0,-100.00,North,9,5.0,12.0,68,0.00,,,0.00,0.000000,,2013-05-08 12:21:00,
2013-05-08 06:31:00,38.0,28.0,-100.00,North,9,5.0,12.0,68,0.00,,,0.00,0.000000,,2013-05-08 12:31:00,
2013-05-08 06:40:00,40.0,29.0,-100.00,NNE,16,3.0,12.0,65,0.00,,,0.00,21.000000,,2013-05-08 12:40:00,
2013-05-08 07:01:00,40.0,29.0,-100.00,NNE,16,3.0,12.0,65,0.00,,,0.00,21.000000,,2013-05-08 13:01:00,
2013-05-08 07:11:00,40.0,29.0,-100.00,NNE,16,3.0,12.0,65,0.00,,,0.00,21.000000,,2013-05-08 13:11:00,
2013-05-08 07:21:00,40.0,29.0,-100.00,NNE,16,3.0,12.0,65,0.00,,,0.00,21.000000,,2013-05-08 13:21:00,
2013-05-08 07:32:00,40.0,29.0,-100.00,NNE,16,3.0,12.0,65,0.00,,,0.00,21.000000,,2013-05-08 13:32:00,
2013-05-08 07:40:00,48.0,30.0,-100.00,NNE,16,3.0,10.0,50,0.00,,,0.00,207.000000,,2013-05-08 13:40:00,
2013-05-08 08:02:00,48.0,30.0,-100.00,NNE,16,3.0,10.0,50,0.00,,,0.00,207.000000,,2013-05-08 14:02:00,
2013-05-08 08:40:00,51.0,28.0,-100.00,North,6,4.0,9.0,40,0.00,,,0.00,414.000000,,2013-05-08 14:40:00,
2013-05-08 09:01:00,51.0,28.0,-100.00,North,6,4.0,9.0,40,0.00,,,0.00,414.000000,,2013-05-08 15:01:00,
2013-05-08 09:40:00,55.0,31.0,-100.00,North,3,4.0,13.0,40,0.00,,,-99.99,603.000000,,2013-05-08 15:40:00,
2013-05-08 10:03:00,55.0,31.0,-100.00,North,3,4.0,13.0,40,0.00,,,-99.99,603.000000,,2013-05-08 16:03:00,
2013-05-08 11:02:00,58.0,31.0,-100.00,North,9,4.0,11.0,35,-99.99,,,-99.99,807.000000,,2013-05-08 17:02:00,
2013-05-08 11:40:00,56.0,34.0,-100.00,NE,50,4.0,12.0,44,-99.99,,,0.00,993.000000,,2013-05-08 17:40:00,
2013-05-08 12:02:00,56.0,34.0,-100.00,NE,50,4.0,12.0,44,-99.99,,,0.00,993.000000,,2013-05-08 18:02:00,
2013-05-08 12:40:00,56.0,35.0,-100.00,North,3,5.0,12.0,45,0.00,,,0.00,1087.000000,,2013-05-08 18:40:00,
2013-05-08 13:01:00,56.0,35.0,-100.00,North,3,5.0,12.0,45,0.00,,,0.00,1087.000000,,2013-05-08 19:01:00,
2013-05-08 13:11:00,56.0,35.0,-100.00,North,3,5.0,12.0,45,0.00,,,0.00,1087.000000,,2013-05-08 19:11:00,
2013-05-08 13:21:00,56.0,35.0,-100.00,North,3,5.0,12.0,45,0.00,,,0.00,1087.000000,,2013-05-08 19:21:00,
2013-05-08 13:32:00,56.0,35.0,-100.00,North,3,5.0,12.0,45,0.00,,,0.00,1087.000000,,2013-05-08 19:32:00,
2013-05-08 13:40:00,55.0,31.0,-100.00,North,1,5.0,13.0,40,0.00,,,0.00,899.000000,,2013-05-08 19:40:00,
2013-05-08 14:02:00,55.0,31.0,-100.00,North,1,5.0,13.0,40,0.00,,,0.00,899.000000,,2013-05-08 20:02:00,
2013-05-08 14:11:00,55.0,31.0,-100.00,North,1,5.0,13.0,40,0.00,,,0.00,899.000000,,2013-05-08 20:11:00,
2013-05-08 14:22:00,55.0,31.0,-100.00,North,1,5.0,13.0,40,0.00,,,0.00,899.000000,,2013-05-08 20:22:00,
2013-05-08 14:32:00,55.0,31.0,-100.00,North,1,5.0,13.0,40,0.00,,,0.00,899.000000,,2013-05-08 20:32:00,
2013-05-08 14:40:00,52.0,28.0,-100.00,ENE,57,6.0,13.0,39,0.00,,,0.00,730.000000,,2013-05-08 20:40:00,
2013-05-08 15:01:00,52.0,28.0,-100.00,ENE,57,6.0,13.0,39,0.00,,,0.00,730.000000,,2013-05-08 21:01:00,
2013-05-08 15:11:00,52.0,28.0,-100.00,ENE,57,6.0,13.0,39,0.00,,,0.00,730.000000,,2013-05-08 21:11:00,
2013-05-08 15:21:00,52.0,28.0,-100.00,ENE,57,6.0,13.0,39,0.00,,,0.00,730.000000,,2013-05-08 21:21:00,
2013-05-08 15:32:00,52.0,28.0,-100.00,ENE,57,6.0,13.0,39,0.00,,,0.00,730.000000,,2013-05-08 21:32:00,
2013-05-08 15:40:00,56.0,28.0,-100.00,North,11,5.0,15.0,34,0.00,,,0.00,614.000000,,2013-05-08 21:40:00,
2013-05-08 16:02:00,56.0,28.0,-100.00,North,11,5.0,15.0,34,0.00,,,0.00,614.000000,,2013-05-08 22:02:00,
2013-05-08 16:12:00,56.0,28.0,-100.00,North,11,5.0,15.0,34,0.00,,,0.00,614.000000,,2013-05-08 22:12:00,
2013-05-08 16:22:00,56.0,28.0,-100.00,North,11,5.0,15.0,34,0.00,,,0.00,614.000000,,2013-05-08 22:22:00,
2013-05-08 16:33:00,56.0,28.0,-100.00,North,11,5.0,15.0,34,0.00,,,0.00,614.000000,,2013-05-08 22:33:00,
2013-05-08 16:40:00,55.0,26.0,-100.00,North,9,4.0,11.0,33,0.00,,,0.00,849.000000,,2013-05-08 22:40:00,
2013-05-08 17:01:00,55.0,26.0,-100.00,North,9,4.0,11.0,33,0.00,,,0.00,849.000000,,2013-05-08 23:01:00,
2013-05-08 17:11:00,55.0,26.0,-100.00,North,9,4.0,11.0,33,0.00,,,0.00,849.000000,,2013-05-08 23:11:00,
2013-05-08 17:22:00,55.0,26.0,-100.00,North,9,4.0,11.0,33,0.00,,,0.00,849.000000,,2013-05-08 23:22:00,
2013-05-08 17:32:00,55.0,26.0,-100.00,North,9,4.0,11.0,33,0.00,,,0.00,849.000000,,2013-05-08 23:32:00,
2013-05-08 17:40:00,55.0,28.0,-100.00,NNE,12,5.0,12.0,35,0.00,,,0.00,588.000000,,2013-05-08 23:40:00,
2013-05-08 18:02:00,55.0,28.0,-100.00,NNE,12,5.0,12.0,35,0.00,,,0.00,588.000000,,2013-05-09 00:02:00,
2013-05-08 18:11:00,55.0,28.0,-100.00,NNE,12,5.0,12.0,35,0.00,,,0.00,588.000000,,2013-05-09 00:11:00,
2013-05-08 18:21:00,55.0,28.0,-100.00,NNE,12,5.0,12.0,35,0.00,,,0.00,588.000000,,2013-05-09 00:21:00,
2013-05-08 18:32:00,55.0,28.0,-100.00,NNE,12,5.0,12.0,35,0.00,,,0.00,588.000000,,2013-05-09 00:32:00,
2013-05-08 18:40:00,55.0,31.0,-100.00,NNE,12,5.0,12.0,39,0.00,,,0.00,509.000000,,2013-05-09 00:40:00,
2013-05-08 19:01:00,55.0,31.0,-100.00,NNE,12,5.0,12.0,39,0.00,,,0.00,509.000000,,2013-05-09 01:01:00,
2013-05-08 19:11:00,55.0,31.0,-100.00,NNE,12,5.0,12.0,39,0.00,,,0.00,509.000000,,2013-05-09 01:11:00,
2013-05-08 19:22:00,55.0,31.0,-100.00,NNE,12,5.0,12.0,39,0.00,,,0.00,509.000000,,2013-05-09 01:22:00,
2013-05-08 19:32:00,55.0,31.0,-100.00,NNE,12,5.0,12.0,39,0.00,,,0.00,509.000000,,2013-05-09 01:32:00,
2013-05-08 19:40:00,48.0,30.0,-100.00,NNW,347,3.0,11.0,50,0.00,,,0.00,244.000000,,2013-05-09 01:40:00,
2013-05-08 20:02:00,48.0,30.0,-100.00,NNW,347,3.0,11.0,50,0.00,,,0.00,244.000000,,2013-05-09 02:02:00,
2013-05-08 20:11:00,48.0,30.0,-100.00,NNW,347,3.0,11.0,50,0.00,,,0.00,244.000000,,2013-05-09 02:11:00,
2013-05-08 20:21:00,48.0,30.0,-100.00,NNW,347,3.0,11.0,50,0.00,,,0.00,244.000000,,2013-05-09 02:21:00,
2013-05-08 20:32:00,48.0,30.0,-100.00,NNW,347,3.0,11.0,50,0.00,,,0.00,244.000000,,2013-05-09 02:32:00,
2013-05-08 20:40:00,43.0,30.0,-100.00,North,358,4.0,9.0,61,0.00,,,0.00,20.000000,,2013-05-09 02:40:00,
2013-05-08 21:01:00,43.0,30.0,-100.00,North,358,4.0,9.0,61,0.00,,,0.00,20.000000,,2013-05-09 03:01:00,
2013-05-08 21:11:00,43.0,30.0,-100.00,North,358,4.0,9.0,61,0.00,,,0.00,20.000000,,2013-05-09 03:11:00,
2013-05-08 21:21:00,43.0,30.0,-100.00,North,358,4.0,9.0,61,0.00,,,0.00,20.000000,,2013-05-09 03:21:00,
2013-05-08 21:33:00,43.0,30.0,-100.00,North,358,4.0,9.0,61,0.00,,,0.00,20.000000,,2013-05-09 03:33:00,
2013-05-08 21:40:00,39.0,29.0,-100.00,North,349,3.0,9.0,67,0.00,,,0.00,0.000000,,2013-05-09 03:40:00,
2013-05-08 22:03:00,39.0,29.0,-100.00,North,349,3.0,9.0,67,0.00,,,0.00,0.000000,,2013-05-09 04:03:00,
2013-05-08 22:12:00,39.0,29.0,-100.00,North,349,3.0,9.0,67,0.00,,,0.00,0.000000,,2013-05-09 04:12:00,
2013-05-08 22:23:00,39.0,29.0,-100.00,North,349,3.0,9.0,67,0.00,,,0.00,0.000000,,2013-05-09 04:23:00,
2013-05-08 22:32:00,39.0,29.0,-100.00,North,349,3.0,9.0,67,0.00,,,0.00,0.000000,,2013-05-09 04:32:00,
2013-05-08 22:40:00,36.0,29.0,-100.00,NNW,328,0.0,6.0,75,0.00,,,0.00,0.000000,,2013-05-09 04:40:00,
2013-05-08 23:02:00,36.0,29.0,-100.00,NNW,328,0.0,6.0,75,0.00,,,0.00,0.000000,,2013-05-09 05:02:00,
2013-05-08 23:12:00,36.0,29.0,-100.00,NNW,328,0.0,6.0,75,0.00,,,0.00,0.000000,,2013-05-09 05:12:00,
2013-05-08 23:22:00,36.0,29.0,-100.00,NNW,328,0.0,6.0,75,0.00,,,0.00,0.000000,,2013-05-09 05:22:00,
2013-05-08 23:32:00,36.0,29.0,-100.00,NNW,328,0.0,6.0,75,0.00,,,0.00,0.000000,,2013-05-09 05:32:00,
2013-05-08 23:40:00,37.0,27.0,-100.00,SSW,198,2.0,4.0,68,0.00,,,0.00,0.000000,,2013-05-09 05:40:00,